Location: Iesi
(43.5167°N, 13.2333°E)
Time: 02:20:11
(UTC+00:00)

Cosmos 2100 Rocket - Pass Details

Date: 08 August 2020
Orbit: 957 x 1000 km, 82.9° (Epoch: 25 September)

Event Time Altitude Azimuth Distance (km) Brightness Sun altitude
Exits shadow 22:05:36 44° 244° (WSW) 1,297 4.5 -28.7°
Maximum altitude 22:06:55 52° 282° (WNW) 1,183 4.5 -28.8°
Drops below altitude 10° 22:12:55 10° 359° (N) 2,697 7.2 -29.1°
Sets 22:15:30 0° 4° (N) 3,648 8.0 -29.3°
